Simultaneous Nadir Overpasses (SNOs) Predictions

Prediction of SNOs between METOP-B and NOAA-19 Satellite Orbit:

Table of predicted SNOs for the next 14.0 days since TLE Epoch: 2/22/2013
Index Date (METOP-B) Time (METOP-B) Lat,Lon (METOP-B) SZA (METOP-B ) Date (NOAA-19) Time (NOAA-19) Lat,Lon (NOAA-19) SZA (NOAA-19 ) Distance(km) Time Diff (sec)
1 02/23/2013 19:44:37 73.92,-121.40 83.55 02/23/2013 19:43:31 73.95,-124.64 83.76 99.68 66
2 02/23/2013 20:35:32 -73.24, 44.35 97.07 02/23/2013 20:34:22 -73.25, 44.27 97.04 2.92 70
3 02/23/2013 21:26:13 73.20,-148.40 82.89 02/23/2013 21:25:21 73.22,-148.43 82.92 2.71 52
4 02/23/2013 22:16:54 -73.17, 18.86 97.16 02/23/2013 22:16:24 -73.16, 18.94 97.16 2.80 30
5 02/23/2013 23:07:34 73.18,-173.78 82.84 02/23/2013 23:07:24 73.19,-173.86 82.86 2.75 10
6 02/23/2013 23:58:16 -73.15, -6.52 97.20 02/23/2013 23:58:28 -73.12, -6.49 97.23 2.89 12
7 02/24/2013 00:48:57 73.11, 160.73 82.76 02/24/2013 00:49:27 73.10, 160.81 82.74 2.94 30
8 02/24/2013 01:39:39 -73.08, -32.01 97.29 02/24/2013 01:40:32 -73.09, -31.93 97.30 2.83 53
9 02/24/2013 02:30:19 73.09, 135.34 82.71 02/24/2013 02:31:31 73.06, 135.37 82.67 3.20 72
10 03/05/2013 20:28:36 -73.23, 46.10 100.88 03/05/2013 20:27:23 -73.23, 46.09 100.87 0.43 73
11 03/05/2013 21:19:16 73.22,-146.60 79.10 03/05/2013 21:18:21 73.23,-146.66 79.12 2.32 55
12 03/05/2013 22:09:58 -73.22, 20.71 100.93 03/05/2013 22:09:27 -73.20, 20.65 100.94 2.89 31
13 03/05/2013 23:00:39 73.15,-172.09 79.01 03/05/2013 23:00:24 73.15,-171.99 79.00 3.36 15
14 03/05/2013 23:51:21 -73.15, -4.78 101.02 03/05/2013 23:51:31 -73.16, -4.79 101.00 1.88 10
15 03/06/2013 00:42:01 73.13, 162.53 78.96 03/06/2013 00:42:28 73.12, 162.57 78.94 2.41 27
16 03/06/2013 01:32:43 -73.13, -30.16 101.06 03/06/2013 01:33:35 -73.13, -30.23 101.07 2.28 52
17 03/06/2013 02:23:23 73.11, 137.14 78.92 03/06/2013 02:24:32 73.08, 137.13 78.87 3.57 69
18 03/06/2013 03:14:19 -72.40, -57.01 101.73 03/06/2013 03:15:25 -72.39, -54.19 101.89 95.02 66




NCC Satellite Simultaneous Nadir Overpasses (SNOs) Prediction Service
